EHI
15 10 6 5 2 0 0 0 0 0 0 0 0 0 0 0 0 0 0 1 1 2 2 2 3 3 4 3 2 1 0 0 1 1 1 1 0 0 0 0 1 2 2 3 5 5 3 1 0
11 7 4 3 1 0 0 0 0 0 0 0 0 0 0 0 0 0 0 1 1 1 1 2 3 3 2 2 1 0 0 0 0 0 1 1 0 0 1 1 1 2 2 3 4 4 2 1 0
7 3 1 1 0 0 0 0 1 0 0 0 0 0 0 0 0 0 0 0 0 1 2 4 4 3 1 1 2 1 0 0 0 0 0 0 0 1 2 2 1 2 2 2 2 2 1 0 0
3 2 0 0 0 0 0 0 0 0 0 0 0 0 0 0 0 0 0 0 0 1 3 4 5 3 1 1 2 1 0 0 0 0 0 0 0 1 3 3 1 1 1 1 1 1 0 0 0
1 0 0 0 0 0 0 0 0 0 0 0 0 0 0 0 0 0 0 0 0 1 2 3 4 3 1 1 1 1 0 0 0 0 0 1 2 3 4 3 1 1 2 2 1 0 0 0 0
0 0 0 0 0 0 0 0 0 0 0 0 0 0 0 0 0 0 0 0 1 2 1 1 2 2 1 1 1 1 0 0 0 0 1 2 3 4 4 3 3 3 3 2 1 0 0 0 0
0 0 0 0 0 0 0 0 0 0 0 0 0 0 0 0 0 0 0 1 2 3 2 1 1 0 1 1 2 2 1 0 1 1 2 3 3 4 3 3 3 3 2 1 0 0 0 0 0
0 0 0 0 0 0 0 0 0 0 0 0 0 0 1 2 1 1 1 2 4 4 3 1 0 0 0 0 2 3 2 2 2 2 2 2 2 2 2 2 2 2 1 0 0 0 0 0 0
0 0 0 0 0 0 0 0 0 0 0 0 0 2 3 4 3 2 3 4 5 5 3 1 0 0 0 0 2 3 3 3 2 1 1 1 1 1 1 1 1 1 0 0 0 0 0 0 0
0 0 0 0 0 0 0 0 0 0 0 0 2 4 5 5 4 3 3 4 5 5 3 1 1 2 2 1 1 2 2 2 1 0 0 0 0 0 0 0 1 0 0 0 0 0 0 0 0
0 0 0 0 0 0 0 0 0 0 0 0 2 5 6 4 3 3 3 3 4 5 3 1 1 3 4 3 1 0 1 1 0 0 0 0 0 0 0 0 0 0 0 0 0 0 0 0 0
0 0 0 0 0 1 1 1 1 1 0 0 2 5 5 4 3 3 3 3 3 4 3 3 2 3 4 3 1 0 1 1 1 0 0 0 0 0 0 0 0 0 0 0 0 0 0 0 0
0 0 0 0 0 1 2 2 2 1 0 0 1 4 4 4 4 3 3 3 3 3 3 3 3 3 2 2 2 2 3 2 1 0 0 1 2 1 1 0 0 0 0 0 0 0 0 0 0
1 1 0 0 0 1 1 1 1 1 0 0 1 3 3 3 3 3 3 3 3 3 2 2 4 4 3 3 4 4 4 3 2 2 2 2 3 3 2 1 1 0 0 0 0 0 0 0 0
0 0 0 0 0 0 0 0 0 0 0 0 1 2 2 2 1 1 1 2 2 2 1 1 3 3 3 4 4 3 4 4 4 4 3 3 3 3 3 3 2 1 0 0 0 0 0 0 0
0 0 0 0 0 0 0 0 0 0 0 0 0 1 1 2 1 0 0 1 1 1 1 1 2 3 3 4 3 3 3 4 4 4 4 3 3 3 3 3 2 1 0 0 0 0 0 0 0
0 0 0 0 0 0 0 0 0 0 0 0 0 0 1 2 3 2 0 0 0 0 0 2 4 3 3 4 3 3 3 3 3 4 3 3 3 3 3 2 2 1 0 0 0 0 0 0 0
0 0 0 0 0 0 0 0 0 0 0 0 0 0 1 3 5 4 1 0 0 0 1 3 4 3 3 4 4 4 4 4 4 3 3 2 2 3 3 3 2 1 0 0 0 0 0 0 0
0 0 0 0 0 0 0 0 0 0 0 0 0 0 2 4 5 4 2 1 0 0 1 3 4 3 4 5 6 6 7 7 6 4 3 3 3 3 3 3 2 1 0 0 0 0 0 0 0
0 0 0 0 0 0 0 0 0 0 0 0 0 0 2 2 2 2 3 2 2 2 2 3 5 4 5 7 7 7 9 9 7 4 3 3 3 3 3 3 2 1 0 0 0 0 0 0 0
0 0 0 0 0 0 0 0 0 0 0 0 0 0 1 1 1 1 2 3 4 5 4 4 5 6 7 8 7 7 8 9 8 5 4 3 3 3 3 3 1 0 0 0 0 0 0 0 0
0 0 0 0 0 0 0 0 0 0 0 0 0 0 1 2 2 1 2 4 5 5 4 4 5 7 9 8 6 5 6 7 7 6 5 4 3 3 3 2 1 0 0 0 0 0 0 0 0
0 0 0 0 0 0 0 0 0 0 0 1 0 0 1 3 2 2 3 5 4 4 4 4 5 6 8 8 6 4 4 4 5 5 4 3 3 3 3 3 1 1 1 0 0 0 0 0 0
0 0 0 0 0 0 0 0 0 0 0 0 0 1 2 3 2 2 4 5 4 3 3 5 6 6 8 7 6 5 4 3 4 4 4 3 3 3 2 2 2 2 1 0 0 0 0 0 0
0 0 0 0 0 0 0 0 0 0 0 0 0 1 4 4 2 2 3 3 2 2 3 5 6 7 7 7 6 6 4 3 3 3 3 2 2 1 1 1 1 1 1 0 0 0 0 0 0
0 0 0 0 0 0 0 0 0 0 0 0 0 2 4 3 2 2 1 1 1 2 3 5 7 8 7 7 6 6 5 4 3 2 1 1 1 0 0 0 0 0 0 0 0 0 0 0 0
0 0 0 0 0 0 0 0 0 0 0 0 1 2 3 3 2 2 1 0 1 2 4 5 6 7 8 7 6 6 5 4 3 2 1 0 1 1 1 2 1 1 1 0 0 0 0 0 0
0 0 0 0 0 0 0 0 0 0 0 0 1 2 3 2 2 1 0 0 1 2 4 4 4 4 6 5 4 4 4 3 3 3 2 1 1 2 2 3 3 2 2 1 0 0 0 0 0
0 0 0 0 0 0 0 0 0 0 0 0 1 2 2 2 1 0 0 0 0 1 2 3 2 3 4 4 3 3 3 3 3 3 3 2 1 1 2 3 3 3 2 1 0 0 0 0 0
0 0 0 0 0 0 0 0 0 0 0 0 0 1 2 2 1 0 0 0 0 0 1 2 2 2 3 3 3 3 3 3 3 3 3 2 1 0 1 2 2 2 1 0 0 0 0 0 0
Wind_Speed
9 9 6 2 2 2 7 7 8 7 8 9 10 11 13 13 10 8 2 3 7 9 9 10 10 11 11 12 12 12 12 12 12 12 11 11 11 11 11 11 11 10 10 10 10 10 10 10 11
9 7 4 2 1 4 7 7 9 9 7 6 9 12 13 13 11 8 3 3 8 10 9 9 10 11 11 11 12 12 12 12 12 12 11 11 11 11 11 11 11 11 11 10 10 11 11 10 10
11 8 4 1 4 5 7 7 8 8 7 7 8 11 10 8 9 6 3 5 8 10 10 9 10 10 10 11 12 12 12 12 11 11 11 11 11 10 10 11 11 11 11 11 11 11 11 10 10
5 3 1 4 8 9 9 8 6 8 7 7 8 10 10 9 6 6 5 6 8 9 9 9 10 10 10 10 11 11 11 11 11 11 11 11 11 10 10 10 10 11 11 11 11 11 11 10 10
3 1 2 6 8 9 8 8 7 8 7 9 11 11 10 8 7 7 5 6 8 8 8 9 10 9 10 10 10 10 10 10 10 10 10 10 10 10 10 10 10 10 11 10 11 11 10 10 10
2 1 2 6 7 7 7 7 8 9 9 9 10 10 8 6 6 5 6 6 6 7 8 8 9 9 9 9 9 9 9 9 8 8 8 9 9 10 10 10 10 10 10 10 10 10 10 10 10
2 0 4 7 6 6 6 6 8 8 8 7 7 9 7 6 5 5 5 5 5 6 7 6 6 7 8 8 7 7 6 6 6 6 6 6 7 8 8 9 9 9 8 8 8 9 8 8 8
2 0 5 5 6 6 6 6 7 8 8 6 7 7 6 6 5 4 5 5 4 5 5 5 5 5 5 5 6 5 4 4 3 3 3 3 4 5 7 8 8 8 7 7 7 7 7 6 6
2 1 4 4 5 6 6 7 7 8 9 10 11 11 9 8 6 5 4 4 4 5 4 4 4 4 3 4 5 4 3 2 2 1 1 1 1 2 4 7 7 7 6 6 5 5 4 4 4
0 2 5 6 6 7 7 6 6 7 8 9 10 10 9 6 5 5 4 5 4 4 4 3 3 4 4 3 3 1 2 1 1 1 1 1 2 2 4 5 5 4 4 3 2 3 3 2 1
3 5 7 7 8 7 8 7 6 6 6 7 8 8 7 6 5 4 4 5 4 4 3 4 3 4 3 2 2 1 1 1 1 2 3 3 2 2 2 1 2 1 2 1 2 2 2 2 2
6 7 7 7 7 6 5 6 6 7 6 7 7 7 6 5 5 5 4 5 4 4 3 4 3 3 4 3 2 1 1 1 2 3 3 2 2 2 2 1 2 1 1 2 2 1 3 3 4
6 7 8 7 7 7 6 6 6 7 6 6 7 6 5 5 5 5 4 5 4 4 4 3 3 4 3 3 2 2 2 2 2 2 2 3 2 2 2 2 2 2 2 2 2 2 3 3 4
7 7 6 6 6 6 6 5 4 4 5 6 6 5 4 5 5 4 4 4 5 4 3 3 4 2 3 3 3 2 2 1 2 2 3 4 3 2 2 2 3 2 2 2 2 3 3 3 3
7 6 5 4 4 5 4 3 4 5 5 5 5 5 4 4 4 4 3 3 3 4 4 3 2 3 3 3 3 2 2 2 2 2 3 4 3 3 3 2 2 2 2 3 3 4 3 3 3
7 5 4 4 4 3 2 2 5 4 4 4 3 5 4 4 3 3 3 3 3 3 4 3 3 3 3 3 2 2 2 2 2 2 3 4 4 4 3 3 2 3 3 3 2 2 2 2 3
6 5 5 5 5 4 3 2 6 5 4 3 3 4 4 4 3 4 3 3 3 3 4 3 3 3 3 2 2 2 2 2 2 2 2 3 3 4 3 2 2 3 3 3 3 3 2 2 2
2 2 2 4 5 4 4 3 6 6 5 4 3 4 4 5 4 4 3 3 2 2 3 4 3 2 2 2 2 2 2 2 2 2 2 3 3 4 3 2 3 3 3 3 3 3 2 2 2
2 1 1 2 4 3 3 4 5 6 5 4 4 3 4 4 5 5 4 4 2 2 3 3 3 3 2 2 2 2 2 2 1 2 2 3 3 3 3 2 2 3 2 2 3 3 3 2 2
3 3 2 2 4 3 4 4 5 6 6 4 3 3 3 4 5 5 4 3 3 2 2 3 3 3 3 2 1 1 1 1 2 2 2 3 3 3 3 2 2 2 2 2 2 3 2 2 2
4 4 3 2 2 5 5 5 6 7 6 5 3 2 3 4 5 5 4 3 3 3 2 2 2 3 3 3 2 2 2 2 2 1 1 2 2 3 3 3 2 2 2 1 2 2 2 1 2
3 3 4 5 6 5 6 4 2 6 6 6 4 3 2 2 3 4 4 4 3 3 2 2 2 2 3 3 2 2 2 1 1 0 1 1 2 2 2 2 2 2 2 2 1 2 1 1 1
4 5 6 8 8 8 7 6 2 4 5 5 4 3 3 3 3 4 4 4 3 3 2 2 2 2 3 2 2 1 2 1 1 1 1 1 1 1 2 2 1 1 1 1 1 1 1 1 0
4 6 8 8 6 7 7 5 1 2 4 4 3 3 3 3 4 4 4 4 3 3 3 2 2 2 2 2 2 2 2 2 2 2 2 1 1 1 1 1 1 1 1 1 1 1 1 1 1
5 5 3 4 4 4 2 2 1 4 5 4 3 2 3 4 4 4 4 3 4 3 2 3 3 2 1 1 2 2 2 1 1 1 1 1 1 1 1 1 1 1 0 1 1 1 0 1 0
5 5 4 4 3 2 2 2 4 5 5 5 4 3 3 3 4 4 4 3 4 4 3 3 2 2 1 1 1 1 2 1 1 0 1 0 0 0 0 0 0 0 1 0 0 0 0 0 0
4 4 5 6 7 6 3 3 5 4 4 4 4 4 3 3 3 4 4 4 4 4 4 3 3 2 1 1 1 1 1 1 1 0 1 0 1 0 1 0 0 0 0 0 0 0 1 0 0
5 6 4 3 4 4 3 3 2 5 3 4 3 3 3 3 3 3 3 3 3 3 3 3 3 2 2 1 0 1 1 1 1 1 1 1 1 1 1 0 0 0 0 0 0 1 1 0 1
4 5 4 4 4 4 3 1 4 4 3 2 3 3 3 3 3 2 2 2 3 3 3 3 2 2 2 1 0 1 1 1 1 1 0 1 1 1 1 1 1 1 1 0 0 1 1 1 1
3 5 5 4 5 4 4 1 3 4 4 3 2 2 3 3 2 2 2 3 2 2 2 2 2 2 2 1 1 0 0 0 0 0 1 1 1 1 0 0 1 1 1 1 0 1 1 1 1
Wind_Direction
281 258 248 260 264 87 76 75 71 59 58 56 58 65 65 53 55 83 83 43 77 86 87 73 57 55 53 53 54 54 54 53 52 51 50 51 53 56 56 56 57 59 61 60 57 55 54 54 54
282 279 275 244 231 88 81 82 77 67 66 67 67 68 72 66 71 90 82 61 78 83 80 73 65 60 57 55 56 56 54 53 54 53 51 50 52 55 56 56 56 57 59 59 58 57 57 56 53
266 269 271 309 49 70 87 84 92 84 72 70 75 61 53 62 68 85 97 89 85 86 85 82 74 69 64 58 57 57 55 54 54 53 52 51 51 54 58 58 56 56 58 58 59 59 59 57 53
273 266 260 67 72 68 84 90 91 89 75 67 78 78 72 58 67 87 90 87 91 92 93 92 83 78 71 65 61 60 57 55 54 54 54 53 51 54 60 59 59 59 60 59 59 60 59 56 51
251 269 89 87 81 76 77 86 87 85 79 73 78 89 87 74 79 88 85 82 89 95 98 99 94 86 80 73 68 63 60 58 56 54 56 56 53 58 63 62 63 63 63 62 61 60 58 55 52
270 258 110 100 91 82 80 85 82 78 79 82 89 96 92 86 79 84 85 80 88 99 106 107 107 99 92 84 76 69 64 60 59 57 57 59 60 64 65 64 65 64 63 63 62 61 60 56 54
289 37 105 111 109 95 83 86 86 85 72 68 86 93 101 89 82 86 86 82 84 93 102 117 124 116 108 99 89 80 72 67 65 65 66 65 66 72 72 69 68 67 64 63 63 62 60 57 55
305 119 110 104 107 94 89 87 81 83 74 61 71 90 107 107 110 104 102 93 84 86 93 103 114 118 123 120 108 103 92 80 82 75 73 83 84 87 84 78 72 71 68 65 63 64 62 57 58
279 97 92 96 108 111 116 109 95 88 85 73 68 83 103 120 124 119 110 99 82 78 83 87 94 100 93 101 106 127 109 80 86 105 47 66 99 101 86 86 86 82 78 71 61 55 57 61 62
162 77 88 93 106 119 115 104 117 108 93 88 86 91 109 125 129 119 106 99 92 82 77 84 87 87 87 79 103 113 99 101 53 47 72 28 54 74 81 98 95 93 89 75 46 24 43 37 59
86 85 85 86 93 105 111 104 88 96 90 94 105 111 118 126 114 105 104 97 88 80 68 69 68 77 79 82 80 54 66 66 39 29 58 39 38 77 88 102 109 92 89 55 49 44 35 38 42
96 87 94 99 94 92 98 99 84 77 82 93 106 121 126 124 116 104 92 94 93 84 66 63 59 69 66 68 84 69 48 51 42 18 56 50 32 55 75 68 60 56 65 46 28 32 43 36 40
107 101 98 98 100 98 94 92 90 83 91 99 105 112 118 116 105 101 99 95 92 88 72 61 55 58 69 74 49 72 59 36 41 18 36 60 48 47 56 62 53 36 40 47 30 36 43 34 37
115 118 121 121 120 122 115 108 110 105 115 117 121 122 115 102 104 96 93 91 95 93 84 69 70 68 67 70 60 48 63 61 37 28 31 53 52 57 51 56 51 37 36 32 38 45 44 44 44
134 137 136 147 156 150 133 115 113 128 131 134 132 122 115 107 104 96 88 87 93 101 98 75 82 73 66 70 69 63 49 52 43 32 22 47 51 57 51 45 48 43 39 36 41 43 34 40 50
180 173 166 164 173 165 187 141 127 142 149 145 139 130 131 129 121 114 103 101 92 91 93 81 66 68 67 67 73 62 63 52 47 40 16 27 40 59 56 45 45 46 44 41 52 49 32 32 41
202 195 171 163 170 177 203 156 141 151 162 161 157 146 148 147 134 117 104 91 84 86 93 90 75 65 66 75 85 63 69 61 54 45 25 12 25 49 60 47 53 51 44 34 37 44 29 30 39
209 201 177 170 164 179 196 180 159 164 184 191 184 173 166 158 147 130 121 101 94 89 93 92 88 78 68 50 70 69 62 59 50 46 31 22 25 45 58 56 59 60 56 39 35 31 25 19 22
304 254 197 145 147 195 219 207 177 171 187 201 199 189 173 156 137 127 132 124 113 93 87 88 79 73 62 39 42 49 51 69 55 54 36 37 38 42 59 50 59 64 64 56 50 37 20 13 18
286 271 225 177 175 214 230 231 195 176 186 194 212 197 176 161 143 133 135 125 120 102 86 90 84 76 79 65 50 63 82 89 89 56 42 40 35 33 47 55 61 67 71 54 50 58 28 4 24
258 275 296 288 241 226 234 242 216 174 176 176 206 215 187 171 158 151 146 133 118 110 100 95 97 92 84 82 64 43 46 40 52 48 42 36 36 36 32 33 60 63 77 76 54 69 65 10 350
285 326 302 277 269 253 230 256 234 171 172 174 181 194 191 169 155 146 144 138 128 115 105 97 85 83 80 81 68 64 61 51 45 40 55 43 49 45 36 28 47 60 66 78 54 63 62 72 348
328 319 286 271 268 273 256 257 227 177 175 180 176 179 178 158 142 144 143 133 128 122 114 99 82 75 82 89 89 78 64 55 46 49 52 54 48 52 51 41 41 49 88 103 86 65 48 60 47
305 278 264 254 254 259 250 244 237 180 161 159 157 166 167 155 141 132 125 127 119 111 118 113 92 71 70 90 103 93 83 70 49 41 34 24 38 30 50 64 47 34 57 87 99 110 92 62 24
267 279 265 236 219 239 211 226 141 96 89 103 111 117 140 144 140 134 130 135 134 133 128 119 110 105 88 75 82 89 90 80 73 54 46 25 25 17 7 45 53 23 24 69 91 103 133 127 90
265 266 279 292 284 293 217 221 108 101 91 89 97 96 102 123 138 137 133 138 141 146 155 142 130 125 122 101 80 90 101 96 99 150 104 69 311 205 102 54 91 32 346 22 87 84 21 105 250
287 267 283 291 289 283 243 152 130 133 118 103 90 83 84 93 122 132 136 140 144 151 155 152 150 143 137 114 83 81 90 97 111 87 73 41 303 344 68 54 77 154 75 15 57 202 223 205 213
262 296 290 277 295 283 261 239 159 130 123 120 110 103 96 91 92 116 139 143 142 148 149 164 172 156 142 137 152 103 93 65 68 65 48 336 337 353 333 328 6 333 64 61 32 289 284 270 249
234 256 270 276 272 289 300 12 58 109 117 123 116 109 106 99 99 105 121 133 135 131 145 169 164 146 149 178 166 93 74 43 52 49 290 291 322 336 344 349 22 19 355 358 14 306 300 284 292
264 270 277 278 286 285 283 307 82 83 76 70 81 89 95 98 107 113 120 116 115 124 153 182 158 147 148 175 174 121 109 56 25 299 282 271 263 255 270 1 24 37 7 354 8 322 319 281 267